This demonstration page uses our WeatherBlox Daily Observations layout. Learn more.

Left ArrowRight Arrow

39.51506, -84.39828

Hourly Observations for November 9, 2020

Temp ( °F °C ) Dew Point ( °F °C ) Humidity (%) Winds ( mph kmh ) Pressure ( in mb ) Visibility ( mi km ) Precip ( " mm )
12:15 am 00:15 Clear 47 8.5 47 8.2 98 98 Calm 30.27 1025 10 16.0934 0 0
12:35 am 00:35 Clear 47 8.3 46 8 98 98 Calm 30.27 1025 10 16.0934 0 0
12:55 am 00:55 Clear 47 8.2 46 7.7 97 97 Calm 30.27 1025 10 16.0934 0 0
1:15 am 01:15 Clear 45 7 44 6.7 98 98 Calm 30.27 1025 10 16.0934 0 0
1:35 am 01:35 Clear 45 7.1 44 6.7 97 97 Calm 30.27 1025 10 16.0934 0 0
1:55 am 01:55 Clear 45 7 45 7 100 100 Calm 30.27 1025 10 16.0934 0 0
2:15 am 02:15 Clear 46 8 N/A N/A Calm 30.26 1025 10 16.0934 0 0
2:35 am 02:35 Clear 45 7 N/A N/A Calm 30.28 1025 10 16.0934 0 0
2:55 am 02:55 Clear 44 6.8 44 6.7 99 99 Calm 30.28 1025 10 16.0934 0 0
3:15 am 03:15 Clear 44 6.9 44 6.8 99 99 Calm 30.28 1025 10 16.0934 0 0
3:35 am 03:35 Clear 45 7 44 6.9 99 99 Calm 30.28 1025 10 16.0934 0 0
3:55 am 03:55 Clear 45 7.1 45 7 99 99 Calm 30.27 1025 10 16.0934 0 0
4:15 am 04:15 Clear 43 6.3 43 6.2 99 99 Calm 30.27 1025 10 16.0934 0 0
4:35 am 04:35 Clear 45 7 N/A N/A Calm 30.27 1025 10 16.0934 0 0
4:55 am 04:55 Clear 44 6.9 44 6.9 100 100 Calm 30.27 1025 10 16.0934 0 0
5:15 am 05:15 Clear 45 7 43 6 93 93 Calm 30.28 1025 10 16.0934 0 0
5:35 am 05:35 Clear 45 7 43 6 93 93 Calm 30.29 1026 10 16.0934 0 0
5:55 am 05:55 Clear 43 6 N/A N/A Calm 30.29 1026 10 16.0934 0 0
6:15 am 06:15 Clear 45 7 N/A N/A Calm 30.3 1026 10 16.0934 0 0
6:35 am 06:35 Clear 43 6 N/A N/A Calm 30.29 1026 10 16.0934 0 0
6:55 am 06:55 Clear 43 6 N/A N/A Calm 30.3 1026 10 16.0934 0 0
7:15 am 07:15 Clear with Mist and Fog 45 7 N/A N/A Calm 30.3 1026 3 4.82802 0 0
7:35 am 07:35 Sunny 45 7 N/A N/A Calm 30.31 1026 10 16.0934 0 0
7:55 am 07:55 Sunny 45 7 N/A N/A Calm 30.31 1026 10 16.0934 0 0
8:15 am 08:15 Sunny 47 8.6 47 8.4 99 99 Calm 30.31 1027 10 16.0934 0 0
8:35 am 08:35 Sunny 50 10.2 49 9.2 94 94 Calm 30.31 1026 10 16.0934 0 0
8:55 am 08:55 Sunny 52 11.3 50 9.9 91 91 Calm 30.31 1026 10 16.0934 0 0
9:15 am 09:15 Sunny 56 13.2 51 10.8 86 86 Calm 30.3 1026 10 16.0934 0 0
9:35 am 09:35 Sunny 60 15.4 51 10.7 74 74 Calm 30.29 1026 10 16.0934 0 0
9:55 am 09:55 Sunny 62 16.9 53 11.4 70 70 Calm 30.27 1025 10 16.0934 0 0
10:15 am 10:15 Sunny 65 18.3 54 12.1 67 67 WSW 3 6 30.27 1025 10 16.0934 0 0
10:35 am 10:35 Sunny 67 19.6 54 12.4 63 63 WSW 3 6 30.26 1025 10 16.0934 0 0
10:55 am 10:55 Sunny 69 20.4 55 12.9 62 62 WSW 3 6 30.25 1024 10 16.0934 0 0
11:15 am 11:15 Sunny 71 21.7 55 13 58 58 W 7 11 30.24 1024 10 16.0934 0 0
11:35 am 11:35 Sunny 72 22.1 56 13.1 57 57 W 6 9 30.23 1024 10 16.0934 0 0
11:55 am 11:55 Sunny 73 22.6 56 13.2 55 55 WSW 6 9 30.22 1023 10 16.0934 0 0
12:15 pm 12:15 Sunny 73 23 56 13.5 55 55 SW 6 9 30.21 1023 10 16.0934 0 0
12:35 pm 12:35 Sunny 74 23.3 56 13.6 55 55 SW 8 13 30.2 1023 10 16.0934 0 0
12:55 pm 12:55 Sunny 75 23.8 57 13.8 54 54 SW 6 9 30.19 1022 10 16.0934 0 0
1:15 pm 13:15 Sunny 75 24.1 56 13.3 51 51 SSW 5 7 30.16 1021 10 16.0934 0 0
1:35 pm 13:35 Sunny 76 24.4 56 13.5 51 51 WSW 7 11 30.15 1021 10 16.0934 0 0
1:55 pm 13:55 Sunny 76 24.7 56 13.5 50 50 Calm 30.14 1021 10 16.0934 0 0
2:15 pm 14:15 Sunny 77 24.9 56 13.5 49 49 WSW 6 9 30.13 1020 10 16.0934 0 0
2:35 pm 14:35 Sunny 77 25.2 56 13.4 48 48 SW 7 11 30.13 1020 10 16.0934 0 0
2:55 pm 14:55 Sunny 78 25.4 56 13.3 47 47 SW 7 11 30.12 1020 10 16.0934 0 0
3:15 pm 15:15 Sunny 78 25.4 56 13.4 47 47 SW 6 9 30.11 1020 10 16.0934 0 0
3:35 pm 15:35 Sunny 78 25.4 56 13.3 47 47 SSW 9 15 30.11 1020 10 16.0934 0 0
3:55 pm 15:55 Sunny 77 25.1 56 13.4 48 48 SSW 6 9 30.11 1020 10 16.0934 0 0
4:15 pm 16:15 Sunny 77 25 56 13.2 48 48 SSW 6 9 30.11 1020 10 16.0934 0 0
4:35 pm 16:35 Sunny 76 24.6 56 13.1 49 49 SSW 7 11 30.11 1020 10 16.0934 0 0
4:55 pm 16:55 Sunny 75 23.8 56 13.2 52 52 SW 6 9 30.11 1019 10 16.0934 0 0
5:15 pm 17:15 Sunny 74 23.4 55 12.9 52 52 SSW 5 7 30.11 1020 10 16.0934 0 0
5:35 pm 17:35 Clear 73 22.7 55 12.6 53 53 Calm 30.11 1020 10 16.0934 0 0
5:55 pm 17:55 Clear 70 21.1 55 12.9 60 60 Calm 30.11 1020 10 16.0934 0 0
6:15 pm 18:15 Clear 64 17.6 56 13.2 76 76 Calm 30.12 1020 10 16.0934 0 0
6:35 pm 18:35 Clear 63 17 55 13 77 77 Calm 30.12 1020 10 16.0934 0 0
6:55 pm 18:55 Clear 61 15.9 55 12.9 83 83 Calm 30.12 1020 10 16.0934 0 0
7:15 pm 19:15 Clear 59 15.1 55 12.7 86 86 Calm 30.13 1020 10 16.0934 0 0
7:35 pm 19:35 Clear 57 14 54 12.4 90 90 Calm 30.13 1020 10 16.0934 0 0
7:55 pm 19:55 Clear 58 14.4 54 12.4 88 88 Calm 30.13 1020 10 16.0934 0 0
8:15 pm 20:15 Clear 58 14.2 54 12.4 89 89 Calm 30.13 1020 10 16.0934 0 0
8:35 pm 20:35 Clear 56 13.5 54 12.1 91 91 Calm 30.13 1020 10 16.0934 0 0
8:55 pm 20:55 Partly Cloudy 57 13.7 54 12.1 90 90 Calm 30.13 1020 10 16.0934 0 0
9:15 pm 21:15 Partly Cloudy 55 13 53 11.8 92 92 Calm 30.12 1020 10 16.0934 0 0
9:35 pm 21:35 Partly Cloudy 55 13 53 11.8 92 92 Calm 30.12 1020 10 16.0934 0 0
9:55 pm 21:55 Clear 55 13 54 12.2 95 95 Calm 30.12 1020 10 16.0934 0 0
10:15 pm 22:15 Clear 54 12.4 53 11.9 97 97 Calm 30.12 1020 10 16.0934 0 0
10:35 pm 22:35 Clear 55 12.8 54 12 95 95 Calm 30.12 1020 10 16.0934 0 0
10:55 pm 22:55 Clear 54 12.4 53 11.9 97 97 Calm 30.11 1020 10 16.0934 0 0
11:15 pm 23:15 Clear 54 12.2 53 11.8 97 97 Calm 30.11 1020 10 16.0934 0 0
11:35 pm 23:35 Clear 54 12.2 53 11.7 97 97 Calm 30.1 1019 10 16.0934 0 0
11:55 pm 23:55 Clear 53 11.8 52 11.3 97 97 Calm 30.1 1019 10 16.0934 0 0

Powered by AerisWeather